Flag for U.S.A. Weather past 2 weeks in Inglewood, California, U.S.A.

Now
85 °F

Sunny.


Feels Like: 85 °F
Forecast: 73 / 88 °F
Wind: 10 mph from West

Location: Hawthorne Municipal Airport

Current Time: Sep 17, 2014 at 2:55:27 PM

Latest Report: Sep 17, 2014 at 1:53 PM


Visibility: 10 mi

Pressure: 29.74 "Hg

Humidity: 42%

Dew point: 59 °F

Location of InglewoodLocation

Historic Weather in Inglewood — Graph

°F

Inglewood temperature yesterday

Maximum temperature yesterday: 94 °F (at 10:53 AM)
Minimum temperature yesterday: 76 °F (at 3:53 AM)
Average temperature yesterday: 82 °F

Past Weeks' High & Low Weather Summary

 TemperatureHumidityPressure
High94 °F (Sep 16, 10:53 AM)87% (Sep 6, 3:53 AM)29.93 "Hg (Sep 6, 3:53 AM)
Low67 °F (Sep 6, 3:53 AM)31% (Sep 8, 1:53 PM)29.68 "Hg (Sep 13, 6:53 PM)
Average76 °F66%29.80 "Hg
* Reported Sep 2 12:53 PM — Sep 17 12:53 PM, Inglewood, Weather by CustomWeather, © 2014

Note: Actual official high and low records may vary slightly from our data, if they occured in-between our weather recording intervals... More about our weather records

Advertising

Inglewood weather history for previous 24 hours

 ConditionsComfort  
Time TempWeatherWind HumidityBarometerVisibility
12:53 PM
Sep 17
85 °FSunny.13 mph45%29.75 "Hg10 mi
11:53 AM84 °FSunny.10 mph49%29.76 "Hg10 mi
10:53 AM87 °FSunny.7 mph43%29.75 "Hg10 mi
9:53 AM89 °FSunny.5 mph38%29.75 "Hg10 mi
8:53 AM84 °FSunny.No wind48%29.74 "Hg10 mi
7:53 AM79 °FSunny.No wind60%29.73 "Hg10 mi
6:53 AM76 °FClear.No wind67%29.73 "Hg10 mi
5:53 AM76 °FClear.No wind67%29.71 "Hg10 mi
4:53 AM76 °FClear.No wind64%29.71 "Hg10 mi
3:53 AM76 °FClear.No wind64%29.71 "Hg10 mi
2:53 AM76 °FClear.No wind64%29.71 "Hg10 mi
1:53 AM78 °FClear.5 mph56%29.72 "Hg10 mi
12:53 AM78 °FClear.No wind52%29.72 "Hg10 mi
11:53 PM
Sep 16
79 °FClear.No wind48%29.72 "Hg10 mi
10:53 PM79 °FClear.3 mph47%29.72 "Hg10 mi
9:53 PM80 °FClear.No wind47%29.72 "Hg10 mi
8:53 PM79 °FClear.5 mph54%29.72 "Hg10 mi
7:53 PM82 °FSunny.10 mph48%29.71 "Hg10 mi
6:53 PM84 °FSunny.13 mph43%29.70 "Hg10 mi
5:53 PM82 °FSunny.8 mph46%29.70 "Hg10 mi
4:53 PM85 °FSunny.9 mph40%29.70 "Hg10 mi
3:53 PM88 °FSunny.12 mph36%29.69 "Hg10 mi
2:53 PM88 °FSunny.12 mph38%29.70 "Hg10 mi
Weather by CustomWeather, © 2014

See weather overviewHow to use our weather pages